Flag for Germany Weather past 2 weeks in Schwedt/Oder, Brandenburg, Germany

Now
43 °F

Broken clouds.


Feels Like: 35 °F
Forecast: 35 / 42 °F
Wind: 17 mph from Southwest

Location: Szczecin Airport

Current Time: Dec 20, 2014 at 11:31:13 AM

Latest Report: Dec 20, 2014 at 11:00 AM


Visibility: N/A

Pressure: 29.65 "Hg

Humidity: 76%

Dew point: 36 °F

Location of Schwedt/OderLocation

Historic Weather in Schwedt/Oder — Graph

°F

Schwedt/Oder temperature yesterday

Maximum temperature yesterday: 54 °F (at 5:30 AM)
Minimum temperature yesterday: 41 °F (at 11:30 PM)
Average temperature yesterday: 49 °F

Past Weeks' High & Low Weather Summary

 TemperatureHumidityPressure
High54 °F (Dec 19, 5:30 AM)100% (Dec 5, 1:00 PM)30.36 "Hg (Dec 5, 1:00 PM)
Low28 °F (Dec 14, 6:30 AM)71% (Dec 12, 8:30 PM)29.27 "Hg (Dec 12, 7:30 PM)
Average38 °F93%29.85 "Hg
* Reported Dec 5 10:00 AM — Dec 20 10:30 AM, Schwedt/Oder, Weather by CustomWeather, © 2014

Note: Actual official high and low records may vary slightly from our data, if they occured in-between our weather recording intervals... More about our weather records

Advertising

Schwedt/Oder weather history for previous 24 hours

 ConditionsComfort  
Time TempWeatherWind HumidityBarometerVisibility
10:30 AM
Dec 20
43 °FBroken clouds.15 mph81%29.68 "HgN/A
10:00 AM41 °FPartly sunny.14 mph87%29.71 "HgN/A
9:30 AM41 °FPartly sunny.13 mph87%29.71 "HgN/A
9:00 AM41 °FSprinkles. Partly sunny.12 mph87%29.71 "HgN/A
8:30 AM41 °FPartly sunny.13 mph87%29.74 "HgN/A
8:00 AM41 °FSprinkles. Passing clouds.13 mph87%29.74 "HgN/A
7:30 AM41 °FPartly cloudy.14 mph87%29.74 "HgN/A
7:00 AM41 °FPartly cloudy.18 mph87%29.74 "HgN/A
6:30 AM39 °FPartly cloudy.13 mph100%29.74 "HgN/A
6:00 AM37 °FPartly cloudy.6 mph100%29.74 "HgN/A
5:30 AM37 °FSprinkles. Partly cloudy.12 mph100%29.74 "Hg5 mi
5:00 AM39 °FSprinkles. Passing clouds.15 mph87%29.74 "HgN/A
4:30 AM41 °FPassing clouds.14 mph81%29.74 "HgN/A
4:00 AM41 °FPassing clouds.16 mph81%29.74 "HgN/A
3:30 AM41 °FPassing clouds.16 mph81%29.74 "HgN/A
3:00 AM41 °FPassing clouds.15 mph81%29.74 "HgN/A
2:30 AM41 °FPassing clouds.13 mph87%29.74 "HgN/A
2:00 AM41 °FPassing clouds.12 mph81%29.74 "HgN/A
1:30 AM41 °FClear.13 mph81%29.74 "Hg10 mi
1:00 AM41 °FClear.15 mph81%29.74 "Hg10 mi
12:30 AM41 °FClear.9 mph87%29.74 "Hg10 mi
12:00 AM41 °FClear.13 mph87%29.74 "Hg10 mi
11:30 PM
Dec 19
41 °FPassing clouds.14 mph87%29.74 "HgN/A
11:00 PM43 °FPassing clouds.17 mph81%29.74 "HgN/A
10:30 PM43 °FPassing clouds.14 mph81%29.71 "HgN/A
10:00 PM43 °FPassing clouds.12 mph81%29.71 "HgN/A
9:30 PM43 °FClear.14 mph81%29.71 "Hg10 mi
9:00 PM43 °FClear.14 mph81%29.68 "Hg10 mi
8:30 PM43 °FClear.14 mph87%29.68 "Hg10 mi
8:00 PM43 °FPassing clouds.12 mph87%29.68 "HgN/A
7:30 PM45 °FPassing clouds.14 mph81%29.68 "HgN/A
7:00 PM46 °FLight rain. Passing clouds.16 mph82%29.65 "HgN/A
6:30 PM46 °FPassing clouds.10 mph87%29.62 "HgN/A
6:00 PM46 °FPassing clouds.12 mph87%29.62 "HgN/A
5:30 PM46 °FClear.9 mph93%29.62 "Hg10 mi
5:00 PM46 °FPassing clouds.10 mph93%29.59 "HgN/A
4:30 PM48 °FPassing clouds.10 mph87%29.59 "HgN/A
4:00 PM48 °FPassing clouds.7 mph94%29.59 "HgN/A
3:30 PM48 °FLight rain. Partly sunny.8 mph94%29.59 "HgN/A
3:00 PM48 °FLight rain. Passing clouds.8 mph94%29.56 "HgN/A
2:30 PM48 °FLight rain. Partly sunny.14 mph94%29.56 "Hg5 mi
2:00 PM48 °FLight rain. Broken clouds.16 mph94%29.56 "Hg5 mi
1:30 PM52 °FLight rain. Broken clouds.13 mph94%29.53 "Hg5 mi
1:00 PM52 °FLight rain. Partly sunny.13 mph94%29.53 "Hg5 mi
12:30 PM52 °FLight rain. Partly sunny.13 mph94%29.56 "Hg5 mi
12:00 PM52 °FLight rain. Partly sunny.14 mph100%29.56 "Hg5 mi
11:30 AM52 °FLight rain. Partly sunny.14 mph94%29.56 "Hg5 mi
11:00 AM52 °FLight rain. Partly sunny.14 mph94%29.56 "Hg5 mi
Weather by CustomWeather, © 2014

See weather overviewHow to use our weather pages